Weather History for KRVS - January, 2013

Change the Weather History Date:

Thursday, January 31, 2013

  Actual Average (KTUL) Record (KTUL)
Temperature  
Mean Temperature 36 °F 39 °F  
Max Temperature 52 °F 50 °F 76 °F (1989)
Min Temperature 21 °F 28 °F -5 °F (1979)
Degree Days  
Heating Degree Days 28 26  
Month to date heating degree days 849  
Since 1 July heating degree days 2273  
Moisture  
Dew Point 19 °F    
Average Humidity 64    
Maximum Humidity 89    
Minimum Humidity 35    
Precipitation  
Precipitation 0.00 in 0.06 in 2.13 in (1983)
Month to date precipitation 1.66  
Year to date precipitation 1.66  
Sea Level Pressure  
Sea Level Pressure 30.22 in    
Wind  
Wind Speed 4 mph (NNE)    
Max Wind Speed 18 mph    
Max Gust Speed 28 mph    
Visibility 9 miles    
Events      
T = Trace of Precipitation, MM = Missing Value Source: NWS Daily Summary

Daily Weather History Graph

Daily Weather History Graph

Search for Another Location

Airport or City:

Trip Planner

Search our weather history database for the weather conditions in past years. The results will help you decide how hot, cold, wet, or windy it might be!

Date:

Astronomy

Jan. 31, 2013 Rise Set
Actual Time 7:25 AM CST 5:50 PM CST
Civil Twilight 6:58 AM CST 6:17 PM CST
Nautical Twilight 6:27 AM CST 6:47 PM CST
Astronomical Twilight 5:57 AM CST 7:18 PM CST
Moon 10:41 PM CST 9:35 AM CST
Length of Visible Light 11h 18m
Length of Day
10h 24m
Waning Gibbous, 79% of the Moon is Illuminated
Jan 31
Waning Gibbous
Feb 3
Last Quarter
Feb 10
New
Feb 17
First Quarter
Feb 25
Full

Hourly Weather History & Observations

Time (CST) Temp. Windchill Dew Point Humidity Pressure Visibility Wind Dir Wind Speed Gust Speed Precip Events Conditions
12:53 AM 24.1 °F - 19.9 °F 84% 30.09 in 7.0 mi Calm Calm - N/A   Clear
1:53 AM 24.1 °F - 19.9 °F 84% 30.08 in 7.0 mi Calm Calm - N/A   Clear
2:53 AM 24.1 °F - 19.9 °F 84% 30.07 in 8.0 mi Calm Calm - N/A   Clear
3:53 AM 23.0 °F - 19.9 °F 88% 30.07 in 8.0 mi Calm Calm - N/A   Clear
4:53 AM 23.0 °F - 19.9 °F 88% 30.07 in 8.0 mi Calm Calm - N/A   Clear
5:53 AM 21.9 °F - 19.0 °F 89% 30.07 in 8.0 mi Calm Calm - N/A   Clear
6:53 AM 21.9 °F - 19.0 °F 89% 30.10 in 10.0 mi Calm Calm - N/A   Clear
7:53 AM 24.1 °F - 19.9 °F 84% 30.11 in 9.0 mi Calm Calm - N/A   Clear
8:53 AM 33.1 °F 27.7 °F 24.1 °F 70% 30.12 in 10.0 mi SSW 5.8 mph - N/A   Clear
9:53 AM 42.1 °F - 23.0 °F 47% 30.15 in 10.0 mi Calm Calm - N/A   Clear
10:53 AM 48.0 °F - 23.0 °F 37% 30.18 in 10.0 mi WNW 5.8 mph - N/A   Clear
11:53 AM 51.1 °F - 24.1 °F 35% 30.15 in 10.0 mi NE 10.4 mph - N/A   Clear
12:53 PM 52.0 °F - 27.0 °F 38% 30.16 in 10.0 mi NNE 12.7 mph - N/A   Clear
2:53 PM 46.0 °F 38.8 °F 25.0 °F 44% 30.23 in 10.0 mi NNE 18.4 mph 25.3 mph N/A   Clear
3:53 PM 41.0 °F 34.3 °F 23.0 °F 49% 30.27 in 10.0 mi North 11.5 mph 23.0 mph N/A   Clear
4:53 PM 35.1 °F 25.2 °F 21.9 °F 59% 30.33 in 10.0 mi NNE 16.1 mph 27.6 mph N/A   Partly Cloudy
6:53 PM 30.0 °F 23.2 °F 17.1 °F 59% 30.43 in 10.0 mi NNE 6.9 mph - N/A   Clear
7:53 PM 28.9 °F 21.9 °F 14.0 °F 54% 30.47 in 10.0 mi NNE 6.9 mph - N/A   Clear
8:53 PM 28.0 °F 19.3 °F 10.0 °F 47% 30.49 in 10.0 mi North 9.2 mph 16.1 mph N/A   Clear
9:53 PM 26.1 °F 16.8 °F 10.0 °F 51% 30.50 in 10.0 mi North 9.2 mph 17.3 mph N/A   Clear
11:53 PM 23.0 °F 10.6 °F 9.0 °F 55% 30.48 in 10.0 mi NNE 13.8 mph - N/A   Clear